軌道要素
The following orbital elements are taken from MPC 57793:
Epoch 2006 Mar. 6.0 TT = JDT 2453800.5
T 2006 Mar. 8.0074 TT MPC
q 5.188435 (2000.0) P Q
z +0.000485 Peri. 6.8861 +0.5421509 +0.8031383
+/-0.000003 Node 63.7718 +0.7572118 -0.5944273
e 0.997484 Incl. 164.0128 +0.3642837 +0.0403125
From 386 observations 2005 Sept. 13-2006 Oct. 1, mean residual 0".6.
|